Regional Weather Roundup
Issued by NWS Green Bay, WI

Home | Current Version | Previous Version | Text Only | Print | Product List | Glossary On
Versions: 1 2 3 4 5 6 7 8 9 10 11 12 13 14 15 16 17 18 19 20 21 22 23 24 25 26 27 28 29 30 31 32 33 34 35 36 37 38 39 40 41 42 43 44 45 46 47 48 49 50
000
ASUS43 KGRB 260811
RWRGRB

NORTH-CENTRAL AND NORTHEAST WISCONSIN REGIONAL WEATHER ROUNDUP
NATIONAL WEATHER SERVICE GREEN BAY WI
300 AM CDT THU MAY 26 2016

WIZ005-009-010>012-018-019-260900-
NORTH CENTRAL WISCONSIN

CITY           SKY/WX    TMP DP  RH WIND       PRES   REMARKS
IRONWOOD       CLOUDY    52  52 100 SW3       29.80S
MANITOWISH WTR NOT AVBL
ARBOR VITAE    CLOUDY    62  60  94 W5        29.82S
EAGLE RIVER      N/A     61  60  99 SW7       29.82S
LAND O LAKES   CLOUDY    59  59 100 CALM      29.83S FOG
RHINELANDER    CLOUDY    62  59  90 SW12      29.84R
PHILLIPS       CLOUDY    60  60 100 SW3       29.82S
ANTIGO         FOG       60  60 100 SW7       29.85S VSB 1
TOMAHAWK       CLOUDY    60  59  95 CALM      29.84S
MERRILL        NOT AVBL
$$

WIZ013-073-260900-
NORTHEAST WISCONSIN

CITY           SKY/WX    TMP DP  RH WIND       PRES   REMARKS
IRON MOUNTAIN  CLOUDY    60  59  96 S9        29.81F FOG
MARINETTE      CLOUDY    61  59  94 SW5       29.84F
OCONTO         MOCLDY   N/A N/A N/A CALM      29.83F
$$

WIZ017-030-035>037-045-260900-
CENTRAL WISCONSIN

CITY           SKY/WX    TMP DP  RH WIND       PRES   REMARKS
MEDFORD        FOG       61  61 100 S6        29.83S VSB 1/4
WAUSAU         FOG       63  32  31 SW6       29.82S VSB 1/2
MOSINEE        FOG       61  61 100 S5        29.84F VSB 1/4
MARSHFIELD     FOG       63  61  93 SW6       29.82F VSB 1/4
WISC RAPIDS    FOG       62  60  93 SW5       29.84F VSB 1/4
STEVENS POINT  FOG       60  60 100 S5        29.84F VSB 1/4
WAUPACA        FOG       61  60  97 CALM      29.84F VSB 1/4
SHAWANO        FOG       62  60  94 CALM      29.84F VSB 1/2
CLINTONVILLE   FOG       61  59  94 SW6       29.83F VSB 1/4
WAUTOMA        NOT AVBL
$$

WIZ038-039-048-051-260900-
FOX VALLEY

CITY           SKY/WX    TMP DP  RH WIND       PRES   REMARKS
NWS GREEN BAY  CLEAR     60  59  96 S9        29.83F FOG
APPLETON       FOG       61  61 100 S6        29.83F VSB 3/4
OSHKOSH        CLOUDY    63  62  97 S10       29.84F FOG
FOND DU LAC    CLEAR     63  62  97 S9        29.85F FOG
$$

WIZ022-050-052-260900-
EAST CENTRAL WISCONSIN

CITY           SKY/WX    TMP DP  RH WIND       PRES   REMARKS
EPHRAIM        CLOUDY    56  56  99 S8        29.85S FOG
STURGEON BAY   NOT AVBL
MANITOWOC      MOCLDY    57  57 100 SE7       29.86F FOG
SHEBOYGAN      FOG       58  57  97 S5        29.87F VSB 3/4
$$

LMZ563-521-522-541>543-260900-
LAKESHORE

STATION/POSITION TIME  TEMP    WIND        PRES    VSBY  WAVE
                       AIR SEA DIR/SP/G                  HT/PER
                 (UTC) (F)     (DEG/KT/KT) (MB)    (MI)  (FT/S)
SHEBOYGAN LKSHOR 0800   52     170/  9/ 10 1012.0F
KEWAUNEE LKSHORE 0700   51      70/  3/  4 1011.0S
ALGOMA MARINA    0702             CALM       N/A
NORTHPORT PIER   0700   53     150/  7/ 10 1011.5S
N MID LAKE BUOY  0750   51 45  160/  8/ 10 1011.5F         1
SISTER BAY LKSHO 0704   57     170/  8/ 10   N/A
CHAMBERS ISLAND  0740   60     170/  2/  8 1010.8S
MENOMINEE LKSHOR 0700   60     160/  7/  9 1009.7S
$$




USA.gov is the U.S. government's official web portal to all federal, state and local government web resources and services.